FW1654 Weather Reports


Display with metric or nautical units.
time (UTC)temp
F
wind
direction
speed
MPH
gust
MPH
rain 1hr
in
rain 24hr
in
rain mn
in
humidity
%
barometer
mb
20260905124029 72 4 1.0 3.0 0.00 0.00 0.00 96 1019.2
20260905123528 72 55 1.0 3.0 0.00 0.00 0.00 97 1019.2
20260905123018 72 16 2.0 3.0 0.00 0.00 0.00 97 1019.2
20260905122456 71 16 2.0 2.0 0.00 0.00 0.00 98 1019.0
20260905122218 71 16 1.0 3.0 0.00 0.00 0.00 98 1019.0
20260905121451 71 16 1.0 3.0 0.00 0.00 0.00 98 1019.0
20260905120949 71 24 2.0 2.0 0.00 0.00 0.00 98 1018.9
20260905120448 71 24 2.0 2.0 0.00 0.00 0.00 98 1018.9
20260905115948 70 8 1.0 2.0 0.00 0.00 0.00 99 1018.9
20260905115447 70 8 1.0 3.0 0.00 0.00 0.00 99 1018.8
20260905114942 70 8 1.0 4.0 0.00 0.00 0.00 99 1018.8
20260905114709 70 8 1.0 4.0 0.00 0.00 0.00 99 1018.8
20260905113931 70 15 0.0 3.0 0.00 0.00 0.00 99 1018.6
20260905113430 70 15 0.0 3.0 0.00 0.00 0.00 98 1018.6
20260905112927 70 15 1.0 0.0 0.00 0.00 0.00 98 1018.6
20260905112637 70 15 1.0 0.0 0.00 0.00 0.00 98 1018.5
20260905111921 70 15 0.0 0.0 0.00 0.00 0.00 98 1018.5
20260905111428 70 15 0.0 2.0 0.00 0.00 0.00 98 1018.5
20260905110851 70 15 0.0 2.0 0.00 0.00 0.00 98 1018.3
20260905110623 70 15 0.0 2.0 0.00 0.00 0.00 98 1018.3
20260905110054 70 12 1.0 2.0 0.00 0.00 0.00 98 1018.3
20260905105314 70 12 1.0 2.0 0.00 0.00 0.00 98 1018.1
20260905104810 70 12 1.0 2.0 0.00 0.00 0.00 98 1018.1
20260905104258 70 12 1.0 2.0 0.00 0.00 0.00 98 1018.1
20260905103801 70 12 1.0 3.0 0.00 0.00 0.00 98 1018.1
20260905103242 70 12 1.0 3.0 0.00 0.00 0.00 98 1018.1
20260905103001 70 12 0.0 2.0 0.00 0.00 0.00 98 1018.1
20260905102242 70 12 0.0 2.0 0.00 0.00 0.00 98 1018.1
20260905101740 70 12 0.0 2.0 0.00 0.00 0.00 98 1018.1
20260905101230 70 12 0.0 0.0 0.00 0.00 0.00 97 1018.0
20260905101218 70 12 0.0 0.0 0.00 0.00 0.00 97 1018.0
20260905100213 70 12 0.0 0.0 0.00 0.00 0.00 97 1018.0
20260905095928 70 12 0.0 0.0 0.00 0.00 0.00 97 1018.0
20260905095431 71 12 0.0 0.0 0.00 0.00 0.00 97 1018.0
20260905094659 71 12 0.0 0.0 0.00 0.00 0.00 97 1018.0
20260905094139 71 12 0.0 0.0 0.00 0.00 0.00 97 1017.9
20260905093630 71 12 0.0 0.0 0.00 0.00 0.00 97 1017.9
20260905093121 71 12 1.0 1.0 0.00 0.00 0.00 97 1017.9
20260905092627 71 12 1.0 3.0 0.00 0.00 0.00 97 1017.8
20260905092123 71 12 1.0 3.0 0.00 0.00 0.00 97 1017.8
20260905091624 71 12 2.0 4.0 0.00 0.00 0.00 97 1017.8
20260905091125 71 12 2.0 4.0 0.00 0.00 0.00 97 1017.7
20260905090626 71 12 1.0 3.0 0.00 0.00 0.00 97 1017.7
20260905090107 71 12 2.0 3.0 0.00 0.00 0.00 97 1017.7
20260905085832 71 12 2.0 2.0 0.00 0.00 0.00 96 1017.8
20260905085107 71 12 2.0 3.0 0.00 0.00 0.00 97 1017.8
20260905084605 71 12 2.0 3.0 0.00 0.00 0.00 97 1017.8
20260905084103 71 44 2.0 3.0 0.00 0.00 0.00 96 1017.8
20260905083834 71 48 2.0 4.0 0.00 0.00 0.00 96 1017.8
20260905083103 71 16 2.0 4.0 0.00 0.00 0.00 96 1017.8
20260905082558 71 7 2.0 4.0 0.00 0.00 0.00 96 1017.9
20260905082058 72 2 2.0 4.0 0.00 0.00 0.00 96 1017.9
20260905081558 72 3 2.0 3.0 0.00 0.00 0.00 96 1017.9
20260905081053 72 3 1.0 3.0 0.00 0.00 0.00 96 1018.1
20260905080545 72 3 1.0 3.0 0.00 0.00 0.00 96 1018.1
20260905080305 72 3 2.0 3.0 0.00 0.00 0.00 96 1018.1
20260905075539 72 3 2.0 3.0 0.00 0.00 0.00 95 1018.1
20260905075017 72 3 2.0 3.0 0.00 0.00 0.00 96 1018.1
20260905074748 72 3 2.0 3.0 0.00 0.00 0.00 95 1018.1
20260905074017 72 3 2.0 4.0 0.00 0.00 0.00 95 1018.1
20260905073513 72 2 2.0 4.0 0.00 0.00 0.00 95 1018.1
20260905073008 72 3 1.0 4.0 0.00 0.00 0.00 95 1018.1
20260905072731 72 7 1.0 3.0 0.00 0.00 0.00 94 1018.5
20260905072234 72 7 0.0 3.0 0.00 0.00 0.00 95 1018.5
20260905071724 73 7 0.0 2.0 0.00 0.00 0.00 94 1018.5
20260905071227 73 7 1.0 2.0 0.00 0.00 0.00 94 1018.6
20260905070441 73 7 1.0 2.0 0.00 0.00 0.00 94 1018.6
20260905070200 73 7 3.0 4.0 0.00 0.00 0.00 94 1018.6
20260905065415 73 7 3.0 4.0 0.00 0.00 0.00 94 1018.7
20260905064920 73 5 4.0 5.0 0.00 0.00 0.00 94 1018.7
20260905064413 73 9 4.0 5.0 0.00 0.00 0.00 94 1018.7
20260905063913 73 2 4.0 6.0 0.00 0.00 0.00 94 1018.9
20260905063412 73 28 4.0 6.0 0.00 0.00 0.00 94 1018.9
20260905062913 73 14 3.0 6.0 0.00 0.00 0.00 94 1018.9
20260905062413 73 5 3.0 5.0 0.00 0.00 0.00 94 1019.1
20260905061912 73 1 3.0 5.0 0.00 0.00 0.00 94 1019.1
20260905061410 73 16 3.0 5.0 0.00 0.00 0.00 94 1019.1
20260905060905 73 22 2.0 5.0 0.00 0.00 0.00 94 1019.1
20260905060405 73 8 2.0 5.0 0.00 0.00 0.00 94 1019.1
20260905055901 73 31 2.0 4.0 0.00 0.00 0.00 94 1019.1
20260905055610 73 31 2.0 4.0 0.00 0.00 0.00 94 1019.3
20260905054848 73 56 2.0 4.0 0.00 0.00 0.00 94 1019.3
20260905054827 73 42 2.0 3.0 0.00 0.00 0.00 94 1019.3
20260905053844 73 24 3.0 5.0 0.00 0.00 0.00 94 1019.4
20260905053339 73 58 3.0 5.0 0.00 0.00 0.00 94 1019.4
20260905053107 73 2 2.0 5.0 0.00 0.00 0.00 94 1019.4
20260905052559 73 66 2.0 4.0 0.00 0.00 0.00 94 1019.5
20260905051830 73 70 2.0 4.0 0.00 0.00 0.00 94 1019.5
20260905051335 73 74 2.0 4.0 0.00 0.00 0.00 94 1019.5
20260905050828 73 75 2.0 4.0 0.00 0.00 0.00 93 1019.6
20260905050325 74 71 2.0 4.0 0.00 0.00 0.00 93 1019.6
20260905045823 74 62 2.0 3.0 0.00 0.00 0.00 93 1019.6
20260905045318 74 63 2.0 3.0 0.00 0.00 0.00 93 1019.5
20260905044818 74 62 1.0 3.0 0.00 0.00 0.00 93 1019.5
20260905044318 74 341 1.0 2.0 0.00 0.00 0.00 93 1019.5
20260905043812 74 341 2.0 2.0 0.00 0.00 0.00 92 1019.5
20260905043310 74 341 2.0 3.0 0.00 0.00 0.00 92 1019.5
20260905042809 74 341 2.0 4.0 0.00 0.00 0.00 92 1019.5
20260905042526 74 338 2.0 4.0 0.00 0.00 0.00 92 1019.5
20260905041803 74 36 2.0 4.0 0.00 0.00 0.00 91 1019.5
20260905041254 74 37 2.0 4.0 0.00 0.00 0.00 91 1019.5
20260905040749 74 53 2.0 2.0 0.00 0.00 0.00 91 1019.4
20260905040253 74 53 2.0 3.0 0.00 0.00 0.00 91 1019.4
20260905040012 74 53 0.0 3.0 0.00 0.00 0.00 91 1019.4
20260905035247 74 59 0.0 2.0 0.00 0.00 0.00 90 1019.4
20260905034745 75 5 0.0 1.0 0.00 0.00 0.00 89 1019.4
20260905034502 75 5 0.0 1.0 0.00 0.00 0.00 89 1019.4
20260905033744 75 5 2.0 3.0 0.00 0.00 0.00 89 1019.3
20260905033450 75 5 2.0 4.0 0.00 0.00 0.00 89 1019.3
20260905032715 75 5 0.0 4.0 0.00 0.00 0.00 89 1019.1
20260905032208 75 5 0.0 3.0 0.00 0.00 0.00 89 1019.1
20260905031703 75 5 1.0 2.0 0.00 0.00 0.00 89 1019.1
20260905031155 75 5 1.0 3.0 0.00 0.00 0.00 88 1019.0
20260905030652 75 5 2.0 4.0 0.00 0.00 0.00 88 1019.0
20260905030152 75 5 2.0 5.0 0.00 0.00 0.00 88 1019.0
20260905025653 75 4 2.0 5.0 0.00 0.00 0.00 88 1018.8
20260905025152 76 26 2.0 3.0 0.00 0.00 0.00 87 1018.8
20260905024648 76 26 2.0 4.0 0.00 0.00 0.00 87 1018.8
20260905024148 76 27 2.0 4.0 0.00 0.00 0.00 86 1018.8
20260905023636 76 348 3.0 5.0 0.00 0.00 0.00 86 1018.8
20260905023140 76 11 3.0 5.0 0.00 0.00 0.00 85 1018.8
20260905022634 76 16 2.0 4.0 0.00 0.00 0.00 84 1018.6
20260905022347 77 211 2.0 3.0 0.00 0.00 0.00 84 1018.6
20260905021851 77 211 4.0 3.0 0.00 0.00 0.00 83 1018.6
20260905021117 78 25 2.0 3.0 0.00 0.00 0.00 80 1018.7
20260905020603 78 25 2.0 3.0 0.00 0.00 0.00 80 1018.7
20260905020312 78 25 2.0 4.0 0.00 0.00 0.00 80 1018.7
20260905020205 78 32 2.0 3.0 0.00 0.00 0.00 80 1018.7
20260905020200 78 347 2.0 4.0 0.00 0.00 0.00 80 1018.7
20260905020045 78 32 2.0 3.0 0.00 0.00 0.00 80 1018.7
20260905014026 78 355 0.0 2.0 0.00 0.00 0.00 80 1018.9
20260905013520 78 355 0.0 2.0 0.00 0.00 0.00 80 1018.9
20260905013020 78 355 2.0 3.0 0.00 0.00 0.00 79 1018.9
20260905012517 78 355 2.0 4.0 0.00 0.00 0.00 79 1019.0
20260905012017 78 355 0.0 4.0 0.00 0.00 0.00 79 1019.0
20260905011512 78 356 0.0 3.0 0.00 0.00 0.00 78 1019.0
20260905011012 79 356 0.0 2.0 0.00 0.00 0.00 78 1019.0
20260905010510 79 356 0.0 2.0 0.00 0.00 0.00 77 1019.0
20260905010139 79 356 2.0 4.0 0.00 0.00 0.00 76 1018.9
20260905010023 79 356 2.0 3.0 0.00 0.00 0.00 77 1019.0
20260905004930 79 355 2.0 4.0 0.00 0.00 0.00 75 1018.9
20260905004649 80 10 2.0 3.0 0.00 0.00 0.00 75 1018.9
20260905003928 80 13 2.0 3.0 0.00 0.00 0.00 76 1019.2
20260905003428 80 66 2.0 3.0 0.00 0.00 0.00 74 1019.2
20260905002918 81 70 2.0 4.0 0.00 0.00 0.00 73 1019.2
20260905002418 81 70 2.0 4.0 0.00 0.00 0.00 72 1019.2
20260905002138 82 7 4.0 6.0 0.00 0.00 0.00 73 1019.2
20260905001406 82 8 4.0 7.0 0.00 0.00 0.00 71 1019.2
20260905000902 82 4 1.0 7.0 0.00 0.00 0.00 71 1019.2
20260905000405 82 355 1.0 4.0 0.00 0.00 0.00 69 1019.2
20260904235856 83 273 2.0 2.0 0.00 0.00 0.00 70 1019.2
20260904235352 83 273 2.0 3.0 0.00 0.00 0.00 70 1019.0
20260904234851 83 273 3.0 4.0 0.00 0.00 0.00 69 1019.0
20260904234556 83 213 3.0 6.0 0.00 0.00 0.00 69 1019.0
20260904233833 83 206 2.0 6.0 0.00 0.00 0.00 68 1019.1
20260904233333 83 62 2.0 0.0 0.00 0.00 0.00 64 1019.1
20260904233038 83 62 2.0 2.0 0.00 0.00 0.00 64 1019.1
20260904232254 83 62 2.0 6.0 0.00 0.00 0.00 64 1018.9
20260904231755 83 62 2.0 6.0 0.00 0.00 0.00 63 1018.9
20260904231254 84 57 2.0 6.0 0.00 0.00 0.00 63 1018.9
20260904230755 84 74 1.0 3.0 0.00 0.00 0.00 62 1018.8
20260904230250 86 14 3.0 3.0 0.00 0.00 0.00 61 1018.8
20260904230009 86 14 3.0 3.0 0.00 0.00 0.00 61 1018.8
20260904225228 86 14 3.0 4.0 0.00 0.00 0.00 61 1018.8
20260904224728 86 335 3.0 5.0 0.00 0.00 0.00 60 1018.8
20260904224228 87 77 3.0 10.0 0.00 0.00 0.00 59 1018.8
20260904223727 89 99 3.0 10.0 0.00 0.00 0.00 56 1018.8
20260904223443 92 3 3.0 7.0 0.00 0.00 0.00 56 1018.8
20260904222728 94 20 2.0 7.0 0.00 0.00 0.00 53 1018.2
20260904222228 96 352 2.0 5.0 0.00 0.00 0.00 50 1018.2
20260904221723 96 9 2.0 5.0 0.00 0.00 0.00 49 1018.2
20260904221657 96 330 2.0 5.0 0.00 0.00 0.00 48 1018.3
20260904220717 96 12 1.0 3.0 0.00 0.00 0.00 51 1018.3
20260904220216 95 255 1.0 2.0 0.00 0.00 0.00 51 1018.3
20260904215715 95 255 1.0 3.0 0.00 0.00 0.00 50 1018.2
20260904215413 95 255 1.0 3.0 0.00 0.00 0.00 50 1018.2
20260904214645 96 256 2.0 4.0 0.00 0.00 0.00 51 1018.2
20260904214403 96 262 2.0 5.0 0.00 0.00 0.00 49 1018.1
20260904213632 96 8 2.0 5.0 0.00 0.00 0.00 48 1018.1
20260904213133 96 203 2.0 4.0 0.00 0.00 0.00 50 1018.1
20260904212627 96 203 3.0 5.0 0.00 0.00 0.00 51 1018.1
20260904212127 96 260 3.0 6.0 0.00 0.00 0.00 48 1018.1
20260904211627 96 260 2.0 6.0 0.00 0.00 0.00 50 1018.1
20260904211127 96 210 2.0 5.0 0.00 0.00 0.00 50 1018.2
20260904210852 96 254 2.0 4.0 0.00 0.00 0.00 49 1018.2
20260904210130 96 318 2.0 5.0 0.00 0.00 0.00 48 1018.2
20260904205848 96 254 3.0 6.0 0.00 0.00 0.00 48 1018.5
20260904205124 96 212 3.0 6.0 0.00 0.00 0.00 49 1018.5
20260904204623 96 204 2.0 5.0 0.00 0.00 0.00 51 1018.5
20260904204347 96 212 2.0 5.0 0.00 0.00 0.00 50 1018.6
20260904204114 96 199 4.0 6.0 0.00 0.00 0.00 48 1018.6
20260904203120 96 192 4.0 9.0 0.00 0.00 0.00 49 1018.6
20260904202619 97 186 3.0 9.0 0.00 0.00 0.00 48 1018.6
20260904202119 98 204 3.0 4.0 0.00 0.00 0.00 49 1018.6
20260904201619 97 247 3.0 3.0 0.00 0.00 0.00 48 1018.6
20260904201039 97 247 3.0 4.0 0.00 0.00 0.00 48 1019.0
20260904200504 97 247 3.0 5.0 0.00 0.00 0.00 48 1019.0
20260904195951 97 203 3.0 6.0 0.00 0.00 0.00 49 1019.0
20260904195207 96 207 3.0 6.0 0.00 0.00 0.00 52 1019.1
20260904194708 96 163 3.0 6.0 0.00 0.00 0.00 49 1019.1
20260904193949 96 197 3.0 7.0 0.00 0.00 0.00 50 1019.3
20260904193450 95 208 3.0 7.0 0.00 0.00 0.00 51 1019.3
20260904193211 95 52 3.0 6.0 0.00 0.00 0.00 51 1019.3
20260904192441 95 283 3.0 6.0 0.00 0.00 0.00 52 1019.6
20260904191942 95 186 3.0 5.0 0.00 0.00 0.00 52 1019.6
20260904191440 95 169 3.0 6.0 0.00 0.00 0.00 52 1019.6
20260904190940 95 207 3.0 6.0 0.00 0.00 0.00 54 1019.6
20260904190442 95 227 3.0 6.0 0.00 0.00 0.00 53 1019.6
20260904185941 94 198 3.0 6.0 0.00 0.00 0.00 54 1019.6
20260904185437 94 234 3.0 5.0 0.00 0.00 0.00 54 1019.9
20260904184936 94 191 2.0 5.0 0.00 0.00 0.00 55 1019.9
20260904184437 94 195 2.0 5.0 0.00 0.00 0.00 57 1019.9
20260904184155 94 261 3.0 7.0 0.00 0.00 0.00 55 1020.1
20260904183704 94 211 3.0 7.0 0.00 0.00 0.00 55 1020.1
20260904183155 95 207 2.0 5.0 0.00 0.00 0.00 55 1020.1
20260904182437 94 170 2.0 5.0 0.00 0.00 0.00 55 1020.4
20260904181940 94 192 3.0 5.0 0.00 0.00 0.00 55 1020.4
20260904181440 94 187 3.0 9.0 0.00 0.00 0.00 57 1020.4
20260904181204 93 208 2.0 9.0 0.00 0.00 0.00 56 1020.6
20260904180440 93 167 2.0 5.0 0.00 0.00 0.00 57 1020.6
20260904175940 93 209 3.0 5.0 0.00 0.00 0.00 59 1020.6
20260904175440 92 232 3.0 6.0 0.00 0.00 0.00 60 1020.9
20260904174940 92 0 2.0 6.0 0.00 0.00 0.00 57 1020.9
20260904174701 92 179 2.0 6.0 0.00 0.00 0.00 59 1020.9
20260904173937 92 298 3.0 5.0 0.00 0.00 0.00 60 1020.9
20260904173436 91 249 3.0 5.0 0.00 0.00 0.00 61 1020.9
20260904172932 91 353 3.0 6.0 0.00 0.00 0.00 59 1020.9
20260904172432 91 202 3.0 6.0 0.00 0.00 0.00 59 1021.0
20260904171932 91 201 2.0 7.0 0.00 0.00 0.00 60 1021.0
20260904171432 91 255 2.0 7.0 0.00 0.00 0.00 63 1021.0
20260904170931 91 213 4.0 6.0 0.00 0.00 0.00 63 1021.2
20260904170432 90 193 4.0 6.0 0.00 0.00 0.00 61 1021.2
20260904165924 90 205 3.0 6.0 0.00 0.00 0.00 63 1021.2
20260904165424 90 220 3.0 6.0 0.00 0.00 0.00 62 1021.5
20260904164924 90 201 2.0 6.0 0.00 0.00 0.00 64 1021.5
20260904164425 89 188 2.0 6.0 0.00 0.00 0.00 64 1021.5
20260904163925 89 202 3.0 6.0 0.00 0.00 0.00 64 1021.6
20260904163422 89 188 3.0 6.0 0.00 0.00 0.00 64 1021.6
20260904162921 89 209 3.0 4.0 0.00 0.00 0.00 65 1021.6
20260904162425 87 220 3.0 4.0 0.00 0.00 0.00 69 1021.9
20260904161915 87 220 3.0 7.0 0.00 0.00 0.00 69 1021.9
20260904161403 87 220 3.0 7.0 0.00 0.00 0.00 69 1021.9
20260904160846 87 193 3.0 5.0 0.00 0.00 0.00 69 1021.9
20260904160347 87 203 3.0 6.0 0.00 0.00 0.00 68 1021.9
20260904155847 86 217 3.0 6.0 0.00 0.00 0.00 69 1021.9
20260904155347 86 209 3.0 5.0 0.00 0.00 0.00 70 1022.0
20260904154846 86 213 2.0 6.0 0.00 0.00 0.00 71 1022.0
20260904154831 85 205 2.0 6.0 0.00 0.00 0.00 72 1022.0
20260904153845 85 218 2.0 5.0 0.00 0.00 0.00 72 1022.0
20260904153345 85 153 2.0 5.0 0.00 0.00 0.00 72 1022.0
20260904153058 84 164 2.0 5.0 0.00 0.00 0.00 76 1022.0
20260904152339 84 30 2.0 4.0 0.00 0.00 0.00 76 1021.9
20260904151834 84 63 2.0 4.0 0.00 0.00 0.00 75 1021.9
20260904151328 83 208 2.0 4.0 0.00 0.00 0.00 75 1021.9
20260904150827 83 211 2.0 4.0 0.00 0.00 0.00 74 1022.0
20260904150322 83 198 2.0 4.0 0.00 0.00 0.00 76 1022.0
20260904145819 82 208 2.0 4.0 0.00 0.00 0.00 78 1022.0
20260904145322 82 180 2.0 4.0 0.00 0.00 0.00 79 1022.0
20260904144819 82 62 2.0 3.0 0.00 0.00 0.00 81 1022.0
20260904144317 81 184 2.0 3.0 0.00 0.00 0.00 81 1022.0
20260904143818 81 77 2.0 3.0 0.00 0.00 0.00 81 1022.1
20260904143316 81 77 2.0 4.0 0.00 0.00 0.00 83 1022.1
20260904142817 80 71 2.0 4.0 0.00 0.00 0.00 84 1022.1
20260904142535 80 173 2.0 4.0 0.00 0.00 0.00 84 1022.0
20260904141817 80 203 2.0 4.0 0.00 0.00 0.00 85 1022.0
20260904141315 79 77 2.0 4.0 0.00 0.00 0.00 85 1022.0
20260904140809 79 78 2.0 4.0 0.00 0.00 0.00 86 1021.9
20260904140309 79 359 2.0 4.0 0.00 0.00 0.00 86 1021.9
20260904135807 78 78 2.0 4.0 0.00 0.00 0.00 88 1021.9
20260904135535 78 45 2.0 3.0 0.00 0.00 0.00 88 1021.9
20260904134759 78 46 2.0 3.0 0.00 0.00 0.00 88 1021.9